Regional Weather Roundup
Issued by NWS

Home | Current Version | Previous Version | Graphics & Text | Print | Product List | Glossary On
Versions: 1 2 3 4 5 6 7 8 9 10 11 12 13 14 15 16 17 18 19 20 21 22 23 24 25 26 27 28
000
ASUS45 KBOI 212110
RWRID

IDAHO REGIONAL WEATHER ROUNDUP
NATIONAL WEATHER SERVICE BOISE ID
300 PM MDT WED JUN 21 2017

NOTE: "FAIR" INDICATES FEW OR NO CLOUDS BELOW 12000 FEET
WITH NO SIGNIFICANT WEATHER AND/OR OBSTRUCTIONS TO VISIBILITY

IDZ012-014-212200-
SOUTHWEST IDAHO


CITY           SKY/WX    TMP DP  RH WIND       PRES   REMARKS
BOISE          SUNNY     82  46  28 NW16G25   30.01F
CALDWELL       SUNNY     83  35  18 W13       30.01F
MOUNTAIN HOME  SUNNY     85  36  17 NW22G30   29.98F
$$

IDZ016-017-212200-
SOUTHCENTRAL IDAHO


CITY           SKY/WX    TMP DP  RH WIND       PRES   REMARKS
BURLEY         MOSUNNY   81  44  27 W15G23    30.01F
JEROME         SUNNY     83  35  18 W16G26    30.02F
TWIN FALLS     MOSUNNY   84  36  18 W10G21    30.03F
$$

IDZ019>023-212200-
SOUTHEAST IDAHO


CITY           SKY/WX    TMP DP  RH WIND       PRES   REMARKS
IDAHO FALLS    SUNNY     84  51  31 S24G32    29.98F
POCATELLO      SUNNY     87  49  26 SW22      30.01F
REXBURG        SUNNY     82  51  34 SW17G25   29.98F
$$

IDZ006-010-011-018-031-032-212200-
CENTRAL IDAHO MOUNTAINS


CITY           SKY/WX    TMP DP  RH WIND       PRES   REMARKS
MCCALL         SUNNY     72  41  32 SW6       30.11S
HAILEY         MOSUNNY   82  45  26 SW9G23    30.03F
STANLEY          N/A     77  29  17 VRB3      30.14F
SALMON         SUNNY     79  39  24 NW6       29.96F
CHALLIS        SUNNY     87  26  11 W10       29.97F
$$

IDZ002-004-006-007-026-212200-
NORTHERN IDAHO


CITY           SKY/WX    TMP DP  RH WIND       PRES   REMARKS
LEWISTON       SUNNY     79  39  23 NW16      30.06F
LOWELL           N/A     79  45  29 VRB6      30.03F
COEUR D`ALENE  SUNNY     75  35  23 SW20      30.05F
MULLAN PASS    SUNNY     58  30  34 VRB6      30.15S
$$




USA.gov is the U.S. government's official web portal to all federal, state and local government web resources and services.